Simultaneous Nadir Overpasses (SNOs) Predictions

Prediction of SNOs between LANDSAT-8 and NOAA-19 Satellite Orbit:

Table of predicted SNOs for the next 14.0 days since TLE Epoch: 10/2/2015
Index Date (LANDSAT-8) Time (LANDSAT-8) Lat,Lon (LANDSAT-8) SZA (LANDSAT-8 ) Date (NOAA-19) Time (NOAA-19) Lat,Lon (NOAA-19) SZA (NOAA-19 ) Distance(km) Time Diff (sec)
1 10/04/2015 04:53:43 -73.67, -70.98 102.14 10/04/2015 04:52:50 -73.66, -70.88 102.15 3.37 53
2 10/04/2015 05:43:10 73.59, 96.48 77.79 10/04/2015 05:43:54 73.60, 96.49 77.81 1.59 44
3 10/06/2015 10:27:26 73.66, 25.58 78.72 10/06/2015 10:27:11 73.65, 25.58 78.71 1.12 15
4 10/06/2015 11:16:55 -73.59,-166.93 101.34 10/06/2015 11:18:06 -73.56,-166.93 101.37 3.64 71
5 10/08/2015 15:11:42 73.73, -45.34 79.64 10/08/2015 15:10:29 73.76, -45.46 79.66 5.03 73
6 10/08/2015 16:01:11 -73.67, 122.15 100.42 10/08/2015 16:01:23 -73.64, 122.10 100.45 3.08 12
7 10/10/2015 20:45:27 -73.73, 51.21 99.52 10/10/2015 20:44:40 -73.73, 51.12 99.53 3.10 47
8 10/10/2015 21:34:54 73.64,-141.33 80.40 10/10/2015 21:35:44 73.61,-141.38 80.38 3.21 50
9 10/13/2015 02:19:10 73.69, 147.71 81.29 10/13/2015 02:19:01 73.69, 147.66 81.29 1.61 9
10 10/13/2015 03:08:41 -73.52, -45.01 98.88 10/13/2015 03:09:53 -73.50, -44.62 98.88 12.46 72
11 10/15/2015 07:03:26 73.73, 76.74 82.16 10/15/2015 07:02:17 73.73, 76.79 82.14 2.00 69
12 10/15/2015 07:52:55 -73.67,-115.76 97.90 10/15/2015 07:53:11 -73.65,-115.75 97.92 2.76 16
